Location: Home
(42.5358°N, 72.7383°W)
Time: 01:22:31
(UTC-05:00)

Vanguard 1 Rocket - Pass Details

Date: 30 November 2021
Orbit: 651 x 4224 km, 34.3° (Epoch: 23 January)

Event Time Altitude Azimuth Distance (km) Brightness Sun altitude
Exits shadow 01:02:09 20° 109° (ESE) 4,363 10.8 -62.9°
Drops below altitude 10° 01:09:34 10° 87° (E) 5,969 11.7 -61.9°
Sets 01:16:45 0° 77° (ENE) 7,610 12.5 -60.9°
